Regional Weather Roundup
Issued by NWS

Home | Current Version | Previous Version | Text Only | Print | Product List | Glossary Off
Versions: 1 2 3 4 5 6 7 8 9 10 11 12 13 14 15 16 17 18 19 20 21 22 23 24 25 26 27 28 29 30 31 32 33 34 35 36 37 38 39 40 41 42 43 44 45 46 47 48 49 50

000
ASUS43 KFSD 032010
RWRSD

WEATHER ROUNDUP FOR SOUTH DAKOTA
NATIONAL WEATHER SERVICE SIOUX FALLS SD
300 PM CDT MON AUG 03 2015

NOTE: "FAIR" INDICATES FEW OR NO CLOUDS BELOW 12,000 FEET WITH NO
SIGNIFICANT WEATHER AND/OR OBSTRUCTIONS TO VISIBILITY.


SDZ001>005-009-010-012>017-032100-
NORTHWEST AND NORTH CENTRAL SOUTH DAKOTA

CITY           SKY/WX    TMP DP  RH WIND       PRES   REMARKS
BUFFALO          N/A     85  52  32 VRB7      29.95F
FAITH            N/A     85  49  28 S12       30.00F
MOBRIDGE       SUNNY     83  52  34 VRB3      29.97F
$$

SDZ012>016-024>037-041>051-057-063-072>074-032100-
SOUTHWEST AND SOUTH CENTRAL SOUTH DAKOTA

CITY           SKY/WX    TMP DP  RH WIND       PRES   REMARKS
RAPID CTY ARPT NOT AVBL
PIERRE         SUNNY     83  53  35 VRB3      29.97F
CUSTER         MOSUNNY   74  57  55 SE10      30.14S
ELLSWORTH AFB  SUNNY     83  56  39 S10       30.01S
PHILIP         SUNNY     84  59  42 E9        29.98F
PINE RIDGE     PTSUNNY   87  60  40 SE12      29.99F
WINNER         FAIR      85  55  35 NE8       29.99F
$$

SDZ004>011-016>023-039-040-032100-
NORTHEAST SOUTH DAKOTA

CITY           SKY/WX    TMP DP  RH WIND       PRES   REMARKS
ABERDEEN       SUNNY     81  52  36 NW7       29.97F
WATERTOWN      SUNNY     79  52  38 NW9       29.98S
BROOKINGS      MOSUNNY   77  54  44 NW8       29.99F
SISSETON         N/A     78  51  38 N16G22    29.94F
$$

SDZ017-020-022-023-036>040-048>070-032100-
SOUTHEAST SOUTH DAKOTA

CITY           SKY/WX    TMP DP  RH WIND       PRES   REMARKS
SIOUX FALLS    MOSUNNY   80  57  45 W6        29.98F
HURON          SUNNY     81  53  37 W8        29.97F
CHAMBERLAIN    SUNNY     81  58  45 SW6       29.99S
MITCHELL       SUNNY     83  57  41 VRB5      29.97F
YANKTON        MOSUNNY   81  61  50 SE8       29.96F
$$

ABBREVIATIONS USED IN REMARKS
   TC - TEMPERATURE IN CELSIUS
  WCI - WIND CHILL INDEX
   HX - HEAT INDEX
  VSB - VISIBILITY



USA.gov is the U.S. government's official web portal to all federal, state and local government web resources and services.